Kezdőlap
METAR-TAF:

METAR-TAF

Repülőterek :

Flying Cloud Airport

Minneapolis-Eden Prairie, Minnesota, Amerikai Egyesült Államok

földrajzi szélesség: 44-49-56N, földrajzi hosszúság: 093-28-13W, magasság: 287 m

Jelenlegi meteorológiai megfigyelések

A jelentés 44 perccel ezelõtt készült, 19:53 UTC
Nyugat-délnyugati szél 7 kt
Hőmérséklet 19°C
Páratartalom 43%
Légköri nyomás 1024 hPa
Látótávolság: 16.1 km
Derült ég

METAR: KFCM 221953Z 24007KT 10SM CLR 19/06 A3024 RMK AO2 SLP242 T01940061

Idő: 15:37 (20:37 UTC)


TAF: hiányzik

Meteorológiai megfigyelések és előrejelzések több, mint 4000 repülőtéren (METAR és TAF jelentéseket).

A térképen piros és sárga pontok jelzik az elérhető meteorológiai állomásokat.

Mozgassa az egeret a pont fölött, hogy megjelenjen az állomás neve.

Azután kattintson az időjárási megfigyelések és előrejelzések megtekintéséhez.

A térkép megváltoztatása: kattintson a fekete keresztel jelölt zöld gombra ráközelítéshez, a vonallal jelölt zöld gombra távolításhoz, vagy a zöld nyilakra a szomszédos térképek eléréséhez.


METAR-TAF: